QPF
0.05 0.05 0.05 0.04 0.05 0.04 0.04 0.04 0.04 0.04 0.05 0.06 0.06 0.06 0.06 0.06 0.06 0.06 0.07 0.09 0.10 0.15 0.20 0.22 0.22 0.17 0.12 0.10 0.07 0.06 0.05 0.05 0.05 0.05 0.05 0.05 0.04 0.04 0.04 0.05 0.05 0.05 0.06
0.03 0.03 0.03 0.02 0.02 0.03 0.04 0.03 0.03 0.04 0.06 0.07 0.07 0.07 0.08 0.07 0.04 0.04 0.06 0.08 0.11 0.16 0.22 0.23 0.19 0.12 0.08 0.07 0.05 0.04 0.04 0.06 0.06 0.05 0.05 0.04 0.04 0.05 0.04 0.03 0.03 0.04 0.04
0.01 0.01 0.01 0.02 0.02 0.03 0.03 0.03 0.04 0.03 0.04 0.05 0.07 0.09 0.10 0.07 0.05 0.05 0.07 0.09 0.13 0.17 0.17 0.16 0.11 0.06 0.05 0.05 0.05 0.04 0.04 0.05 0.05 0.05 0.03 0.01 0.03 0.06 0.05 0.04 0.03 0.03 0.03
0.00 0.00 0.00 0.02 0.01 0.01 0.02 0.03 0.04 0.02 0.02 0.03 0.04 0.05 0.05 0.06 0.06 0.05 0.07 0.11 0.13 0.13 0.11 0.09 0.06 0.04 0.02 0.03 0.03 0.03 0.03 0.04 0.06 0.07 0.03 0.01 0.01 0.03 0.03 0.02 0.02 0.03 0.02
0.00 0.00 0.01 0.01 0.00 0.01 0.01 0.02 0.02 0.02 0.02 0.03 0.04 0.04 0.04 0.03 0.04 0.05 0.09 0.11 0.10 0.08 0.06 0.05 0.04 0.02 0.01 0.02 0.02 0.03 0.03 0.05 0.06 0.07 0.05 0.02 0.01 0.02 0.01 0.01 0.02 0.02 0.02
0.01 0.00 0.00 0.00 0.00 0.00 0.00 0.01 0.02 0.02 0.01 0.02 0.03 0.04 0.04 0.03 0.03 0.04 0.05 0.05 0.05 0.04 0.03 0.03 0.02 0.02 0.01 0.01 0.02 0.03 0.02 0.03 0.04 0.04 0.04 0.01 0.01 0.02 0.01 0.01 0.01 0.01 0.01
0.00 0.00 0.00 0.00 0.00 0.00 0.00 0.00 0.01 0.01 0.01 0.01 0.02 0.02 0.02 0.03 0.02 0.02 0.02 0.02 0.02 0.02 0.02 0.02 0.02 0.01 0.01 0.02 0.03 0.04 0.04 0.04 0.03 0.05 0.03 0.02 0.01 0.02 0.01 0.01 0.00 0.01 0.01
0.00 0.00 0.00 0.00 0.00 0.00 0.00 0.00 0.00 0.01 0.01 0.01 0.01 0.01 0.01 0.02 0.02 0.01 0.01 0.01 0.01 0.01 0.01 0.01 0.01 0.01 0.01 0.02 0.02 0.03 0.04 0.03 0.03 0.05 0.03 0.02 0.02 0.02 0.01 0.01 0.00 0.01 0.01
0.01 0.01 0.01 0.01 0.01 0.01 0.01 0.00 0.00 0.01 0.01 0.01 0.01 0.01 0.01 0.01 0.01 0.01 0.01 0.01 0.01 0.01 0.01 0.00 0.01 0.01 0.01 0.01 0.02 0.02 0.03 0.03 0.03 0.03 0.03 0.02 0.02 0.02 0.01 0.01 0.00 0.01 0.01
0.03 0.03 0.03 0.03 0.02 0.01 0.01 0.01 0.01 0.01 0.02 0.02 0.02 0.02 0.02 0.01 0.01 0.01 0.01 0.01 0.01 0.01 0.01 0.01 0.01 0.01 0.01 0.01 0.01 0.02 0.02 0.03 0.03 0.02 0.02 0.02 0.02 0.01 0.01 0.01 0.01 0.01 0.01
0.02 0.04 0.04 0.01 0.01 0.01 0.01 0.02 0.01 0.02 0.03 0.06 0.04 0.03 0.03 0.02 0.02 0.02 0.02 0.02 0.02 0.02 0.01 0.01 0.02 0.02 0.01 0.01 0.01 0.02 0.02 0.03 0.04 0.03 0.02 0.02 0.02 0.02 0.01 0.01 0.01 0.02 0.02
0.02 0.02 0.02 0.01 0.01 0.02 0.03 0.05 0.02 0.03 0.03 0.04 0.06 0.04 0.02 0.04 0.03 0.03 0.03 0.04 0.04 0.03 0.02 0.02 0.02 0.02 0.01 0.01 0.01 0.02 0.02 0.03 0.03 0.03 0.04 0.04 0.02 0.02 0.02 0.01 0.01 0.01 0.02
0.01 0.01 0.02 0.02 0.01 0.01 0.03 0.05 0.04 0.04 0.04 0.04 0.05 0.05 0.03 0.03 0.04 0.05 0.05 0.04 0.04 0.03 0.02 0.02 0.02 0.02 0.02 0.01 0.02 0.02 0.03 0.04 0.04 0.04 0.04 0.04 0.03 0.02 0.02 0.01 0.01 0.01 0.01
0.01 0.01 0.01 0.02 0.02 0.01 0.02 0.03 0.04 0.05 0.05 0.05 0.09 0.07 0.05 0.04 0.04 0.06 0.09 0.04 0.05 0.04 0.04 0.03 0.03 0.03 0.02 0.03 0.02 0.03 0.04 0.05 0.04 0.06 0.04 0.04 0.03 0.03 0.03 0.02 0.01 0.01 0.01
0.00 0.01 0.01 0.01 0.01 0.01 0.01 0.02 0.02 0.03 0.04 0.05 0.06 0.08 0.06 0.04 0.05 0.06 0.05 0.04 0.04 0.04 0.04 0.05 0.05 0.04 0.02 0.02 0.02 0.02 0.02 0.03 0.04 0.05 0.03 0.03 0.03 0.02 0.03 0.03 0.02 0.02 0.02
0.00 0.00 0.00 0.00 0.01 0.01 0.01 0.02 0.02 0.02 0.03 0.02 0.03 0.04 0.05 0.04 0.03 0.03 0.03 0.03 0.03 0.04 0.03 0.04 0.05 0.04 0.04 0.04 0.03 0.03 0.03 0.03 0.03 0.05 0.04 0.02 0.02 0.02 0.03 0.04 0.04 0.04 0.03
0.00 0.00 0.00 0.00 0.01 0.01 0.01 0.02 0.02 0.03 0.02 0.02 0.03 0.03 0.04 0.03 0.02 0.02 0.02 0.03 0.03 0.04 0.04 0.04 0.04 0.05 0.05 0.05 0.05 0.04 0.05 0.05 0.05 0.06 0.05 0.03 0.02 0.03 0.03 0.04 0.06 0.07 0.08
0.00 0.00 0.01 0.02 0.02 0.02 0.02 0.03 0.03 0.04 0.03 0.04 0.04 0.05 0.06 0.03 0.02 0.03 0.03 0.03 0.03 0.03 0.04 0.04 0.05 0.05 0.06 0.07 0.07 0.06 0.06 0.07 0.05 0.08 0.07 0.04 0.03 0.03 0.03 0.04 0.06 0.07 0.09
0.01 0.01 0.02 0.03 0.03 0.03 0.03 0.03 0.04 0.03 0.04 0.04 0.04 0.05 0.07 0.07 0.05 0.04 0.04 0.04 0.04 0.04 0.04 0.04 0.07 0.06 0.06 0.05 0.05 0.06 0.07 0.08 0.08 0.08 0.08 0.06 0.06 0.06 0.07 0.06 0.09 0.09 0.11
0.01 0.01 0.01 0.03 0.04 0.03 0.04 0.04 0.04 0.03 0.04 0.04 0.04 0.05 0.09 0.11 0.08 0.06 0.04 0.07 0.08 0.06 0.04 0.04 0.05 0.06 0.05 0.04 0.05 0.06 0.07 0.08 0.12 0.15 0.14 0.11 0.11 0.11 0.13 0.15 0.16 0.15 0.14
0.02 0.03 0.03 0.03 0.05 0.04 0.04 0.04 0.04 0.04 0.04 0.05 0.05 0.07 0.10 0.09 0.06 0.06 0.06 0.07 0.05 0.04 0.03 0.03 0.03 0.03 0.04 0.04 0.07 0.06 0.06 0.06 0.10 0.13 0.14 0.15 0.14 0.16 0.18 0.21 0.20 0.17 0.12
0.03 0.08 0.04 0.04 0.04 0.04 0.07 0.05 0.02 0.03 0.03 0.05 0.05 0.05 0.05 0.04 0.04 0.04 0.04 0.05 0.05 0.04 0.04 0.04 0.04 0.04 0.06 0.07 0.07 0.07 0.05 0.08 0.10 0.09 0.12 0.18 0.18 0.20 0.23 0.21 0.18 0.17 0.11
0.04 0.03 0.02 0.02 0.03 0.04 0.05 0.03 0.02 0.03 0.04 0.05 0.05 0.03 0.02 0.02 0.03 0.03 0.04 0.05 0.05 0.04 0.03 0.03 0.05 0.06 0.06 0.06 0.06 0.05 0.05 0.05 0.06 0.09 0.14 0.23 0.28 0.23 0.20 0.17 0.15 0.14 0.16
0.05 0.02 0.02 0.02 0.02 0.03 0.03 0.04 0.03 0.03 0.04 0.04 0.04 0.04 0.03 0.02 0.02 0.02 0.03 0.03 0.03 0.04 0.04 0.02 0.03 0.05 0.04 0.04 0.05 0.06 0.05 0.05 0.05 0.07 0.10 0.14 0.17 0.18 0.17 0.14 0.12 0.09 0.11
0.03 0.02 0.02 0.02 0.02 0.02 0.02 0.02 0.03 0.03 0.04 0.05 0.05 0.05 0.04 0.03 0.02 0.02 0.02 0.02 0.02 0.03 0.03 0.03 0.04 0.05 0.05 0.05 0.07 0.08 0.07 0.07 0.07 0.07 0.10 0.14 0.17 0.20 0.15 0.11 0.11 0.09 0.11
0.03 0.02 0.02 0.02 0.02 0.03 0.02 0.02 0.03 0.03 0.03 0.04 0.05 0.06 0.05 0.06 0.04 0.04 0.04 0.04 0.03 0.02 0.02 0.03 0.05 0.05 0.06 0.07 0.07 0.07 0.08 0.08 0.08 0.09 0.10 0.11 0.13 0.16 0.17 0.13 0.12 0.10 0.13
MSLP
1015.72 1015.13 1014.65 1014.36 1014.24 1014.23 1014.26 1014.25 1014.14 1013.91 1013.59 1013.24 1012.91 1012.68 1012.56 1012.54 1012.61 1012.70 1012.78 1012.81 1012.78 1012.73 1012.69 1012.70 1012.77 1012.94 1013.17 1013.43 1013.70 1013.94 1014.12 1014.27 1014.38 1014.48 1014.59 1014.72 1014.87 1015.04 1015.22 1015.38 1015.54 1015.69 1015.84
1015.73 1015.23 1014.83 1014.58 1014.48 1014.47 1014.48 1014.45 1014.33 1014.11 1013.82 1013.52 1013.26 1013.09 1013.03 1013.08 1013.18 1013.29 1013.38 1013.41 1013.38 1013.33 1013.28 1013.28 1013.35 1013.50 1013.70 1013.94 1014.18 1014.40 1014.57 1014.72 1014.84 1014.95 1015.08 1015.23 1015.39 1015.55 1015.70 1015.83 1015.96 1016.07 1016.20
1015.69 1015.28 1014.95 1014.75 1014.66 1014.66 1014.67 1014.65 1014.54 1014.36 1014.12 1013.87 1013.67 1013.55 1013.53 1013.58 1013.69 1013.80 1013.87 1013.89 1013.87 1013.82 1013.78 1013.79 1013.86 1014.00 1014.19 1014.40 1014.61 1014.81 1014.98 1015.12 1015.26 1015.41 1015.56 1015.73 1015.90 1016.06 1016.20 1016.31 1016.41 1016.50 1016.61
1015.60 1015.28 1015.01 1014.86 1014.80 1014.82 1014.86 1014.86 1014.80 1014.66 1014.47 1014.28 1014.11 1014.02 1013.99 1014.03 1014.10 1014.17 1014.22 1014.23 1014.21 1014.19 1014.18 1014.22 1014.31 1014.45 1014.63 1014.82 1015.01 1015.19 1015.34 1015.50 1015.66 1015.83 1016.02 1016.21 1016.40 1016.56 1016.69 1016.79 1016.87 1016.95 1017.05
1015.50 1015.24 1015.04 1014.94 1014.93 1014.98 1015.05 1015.09 1015.08 1015.00 1014.86 1014.71 1014.57 1014.47 1014.41 1014.40 1014.42 1014.44 1014.45 1014.45 1014.44 1014.45 1014.50 1014.58 1014.71 1014.88 1015.06 1015.23 1015.40 1015.55 1015.70 1015.85 1016.02 1016.22 1016.43 1016.65 1016.85 1017.02 1017.15 1017.24 1017.31 1017.39 1017.49
1015.42 1015.23 1015.09 1015.03 1015.06 1015.15 1015.26 1015.35 1015.38 1015.35 1015.26 1015.14 1015.01 1014.90 1014.80 1014.73 1014.68 1014.64 1014.62 1014.61 1014.62 1014.68 1014.78 1014.92 1015.10 1015.29 1015.48 1015.65 1015.79 1015.92 1016.05 1016.19 1016.36 1016.57 1016.80 1017.03 1017.24 1017.41 1017.53 1017.62 1017.69 1017.77 1017.88
1015.44 1015.29 1015.19 1015.17 1015.23 1015.35 1015.49 1015.61 1015.68 1015.69 1015.65 1015.55 1015.43 1015.30 1015.17 1015.05 1014.94 1014.86 1014.80 1014.79 1014.82 1014.92 1015.07 1015.27 1015.49 1015.71 1015.90 1016.06 1016.17 1016.28 1016.38 1016.51 1016.68 1016.88 1017.12 1017.35 1017.56 1017.72 1017.84 1017.91 1017.98 1018.06 1018.18
1015.56 1015.46 1015.39 1015.39 1015.47 1015.60 1015.75 1015.88 1015.97 1016.01 1015.99 1015.92 1015.82 1015.69 1015.55 1015.40 1015.26 1015.14 1015.06 1015.04 1015.09 1015.22 1015.40 1015.63 1015.88 1016.10 1016.29 1016.43 1016.53 1016.60 1016.68 1016.80 1016.95 1017.15 1017.38 1017.61 1017.81 1017.97 1018.07 1018.14 1018.19 1018.26 1018.38
1015.80 1015.72 1015.68 1015.70 1015.77 1015.89 1016.02 1016.14 1016.23 1016.28 1016.28 1016.25 1016.17 1016.06 1015.93 1015.78 1015.64 1015.51 1015.42 1015.39 1015.44 1015.56 1015.75 1015.98 1016.22 1016.44 1016.61 1016.73 1016.80 1016.86 1016.93 1017.03 1017.18 1017.37 1017.60 1017.82 1018.02 1018.16 1018.25 1018.30 1018.34 1018.40 1018.50
1016.10 1016.05 1016.03 1016.06 1016.12 1016.21 1016.30 1016.39 1016.46 1016.50 1016.52 1016.51 1016.47 1016.41 1016.32 1016.20 1016.07 1015.94 1015.85 1015.81 1015.83 1015.93 1016.09 1016.29 1016.50 1016.68 1016.83 1016.92 1016.98 1017.02 1017.08 1017.18 1017.33 1017.53 1017.76 1017.98 1018.17 1018.31 1018.39 1018.43 1018.45 1018.49 1018.57
1016.41 1016.40 1016.40 1016.43 1016.48 1016.53 1016.57 1016.61 1016.64 1016.67 1016.69 1016.70 1016.71 1016.70 1016.66 1016.59 1016.50 1016.39 1016.30 1016.23 1016.22 1016.27 1016.38 1016.52 1016.67 1016.81 1016.92 1016.99 1017.03 1017.08 1017.14 1017.25 1017.40 1017.61 1017.84 1018.07 1018.26 1018.41 1018.49 1018.53 1018.55 1018.57 1018.63
1016.65 1016.68 1016.73 1016.77 1016.80 1016.81 1016.81 1016.79 1016.78 1016.77 1016.79 1016.83 1016.87 1016.91 1016.93 1016.92 1016.87 1016.78 1016.69 1016.61 1016.55 1016.54 1016.58 1016.65 1016.73 1016.82 1016.89 1016.94 1016.98 1017.03 1017.10 1017.22 1017.39 1017.60 1017.84 1018.08 1018.29 1018.44 1018.55 1018.61 1018.63 1018.66 1018.70
1016.78 1016.87 1016.96 1017.02 1017.04 1017.03 1016.99 1016.92 1016.86 1016.83 1016.83 1016.87 1016.94 1017.02 1017.08 1017.12 1017.11 1017.06 1016.97 1016.88 1016.79 1016.72 1016.69 1016.69 1016.71 1016.74 1016.78 1016.81 1016.85 1016.91 1016.99 1017.12 1017.30 1017.51 1017.75 1018.00 1018.22 1018.40 1018.54 1018.63 1018.69 1018.73 1018.78
1016.79 1016.93 1017.06 1017.14 1017.18 1017.16 1017.09 1016.99 1016.90 1016.83 1016.81 1016.84 1016.91 1017.01 1017.10 1017.17 1017.20 1017.18 1017.11 1017.02 1016.91 1016.81 1016.73 1016.67 1016.64 1016.64 1016.65 1016.67 1016.71 1016.76 1016.85 1016.98 1017.15 1017.36 1017.59 1017.83 1018.06 1018.26 1018.43 1018.57 1018.67 1018.76 1018.83
1016.68 1016.86 1017.03 1017.14 1017.20 1017.18 1017.11 1017.01 1016.89 1016.80 1016.75 1016.75 1016.80 1016.89 1016.99 1017.08 1017.14 1017.15 1017.11 1017.04 1016.94 1016.83 1016.73 1016.65 1016.60 1016.56 1016.55 1016.57 1016.60 1016.65 1016.73 1016.84 1016.99 1017.17 1017.37 1017.58 1017.81 1018.02 1018.22 1018.40 1018.55 1018.69 1018.81
1016.50 1016.71 1016.89 1017.03 1017.11 1017.12 1017.07 1016.97 1016.86 1016.75 1016.67 1016.63 1016.65 1016.70 1016.78 1016.87 1016.94 1016.99 1016.99 1016.96 1016.90 1016.82 1016.74 1016.66 1016.60 1016.56 1016.54 1016.55 1016.57 1016.61 1016.68 1016.76 1016.86 1016.99 1017.14 1017.31 1017.50 1017.70 1017.91 1018.11 1018.31 1018.49 1018.65
1016.31 1016.50 1016.68 1016.84 1016.94 1016.99 1016.98 1016.92 1016.82 1016.71 1016.61 1016.53 1016.49 1016.49 1016.53 1016.59 1016.67 1016.75 1016.80 1016.83 1016.83 1016.80 1016.76 1016.71 1016.66 1016.63 1016.61 1016.61 1016.62 1016.65 1016.70 1016.74 1016.80 1016.87 1016.95 1017.06 1017.19 1017.35 1017.53 1017.73 1017.95 1018.15 1018.35
1016.14 1016.30 1016.46 1016.61 1016.74 1016.83 1016.88 1016.87 1016.81 1016.71 1016.59 1016.47 1016.37 1016.30 1016.28 1016.31 1016.38 1016.47 1016.57 1016.66 1016.73 1016.78 1016.79 1016.77 1016.75 1016.73 1016.71 1016.72 1016.73 1016.75 1016.78 1016.80 1016.82 1016.83 1016.85 1016.88 1016.93 1017.02 1017.14 1017.31 1017.50 1017.70 1017.91
1016.03 1016.13 1016.26 1016.40 1016.54 1016.68 1016.78 1016.84 1016.83 1016.77 1016.64 1016.48 1016.32 1016.18 1016.09 1016.07 1016.11 1016.21 1016.35 1016.49 1016.63 1016.73 1016.79 1016.82 1016.82 1016.81 1016.80 1016.81 1016.83 1016.86 1016.89 1016.91 1016.91 1016.88 1016.84 1016.80 1016.77 1016.76 1016.81 1016.90 1017.03 1017.20 1017.39
1015.98 1016.03 1016.11 1016.23 1016.38 1016.56 1016.72 1016.85 1016.91 1016.88 1016.76 1016.57 1016.35 1016.14 1015.98 1015.89 1015.90 1015.99 1016.14 1016.32 1016.50 1016.64 1016.74 1016.79 1016.81 1016.80 1016.80 1016.82 1016.86 1016.92 1016.98 1017.02 1017.04 1017.00 1016.93 1016.83 1016.71 1016.62 1016.56 1016.56 1016.61 1016.71 1016.85
1015.98 1015.98 1016.02 1016.11 1016.27 1016.48 1016.70 1016.89 1017.01 1017.03 1016.93 1016.73 1016.47 1016.20 1015.96 1015.81 1015.77 1015.83 1015.97 1016.16 1016.35 1016.51 1016.62 1016.68 1016.69 1016.68 1016.68 1016.72 1016.78 1016.89 1017.00 1017.09 1017.15 1017.14 1017.07 1016.93 1016.77 1016.59 1016.44 1016.33 1016.28 1016.30 1016.38
1016.01 1015.98 1015.98 1016.05 1016.21 1016.43 1016.70 1016.95 1017.13 1017.19 1017.12 1016.92 1016.64 1016.32 1016.03 1015.82 1015.72 1015.73 1015.85 1016.01 1016.19 1016.34 1016.44 1016.47 1016.46 1016.44 1016.44 1016.48 1016.58 1016.73 1016.91 1017.07 1017.20 1017.24 1017.20 1017.07 1016.87 1016.64 1016.42 1016.23 1016.10 1016.04 1016.05
1016.07 1016.02 1016.00 1016.04 1016.18 1016.41 1016.70 1016.99 1017.22 1017.33 1017.30 1017.12 1016.83 1016.48 1016.15 1015.90 1015.74 1015.71 1015.78 1015.91 1016.05 1016.16 1016.22 1016.22 1016.17 1016.12 1016.11 1016.15 1016.27 1016.47 1016.70 1016.94 1017.14 1017.26 1017.27 1017.17 1016.98 1016.73 1016.47 1016.23 1016.05 1015.94 1015.90
1016.13 1016.09 1016.04 1016.05 1016.16 1016.38 1016.67 1016.98 1017.25 1017.40 1017.41 1017.26 1016.99 1016.65 1016.31 1016.02 1015.83 1015.76 1015.78 1015.86 1015.96 1016.02 1016.03 1015.98 1015.90 1015.81 1015.76 1015.80 1015.93 1016.14 1016.42 1016.71 1016.97 1017.15 1017.22 1017.17 1017.02 1016.80 1016.55 1016.32 1016.12 1016.00 1015.95
1016.21 1016.16 1016.09 1016.07 1016.14 1016.32 1016.60 1016.91 1017.19 1017.39 1017.44 1017.34 1017.11 1016.80 1016.47 1016.18 1015.97 1015.87 1015.85 1015.89 1015.93 1015.95 1015.92 1015.82 1015.70 1015.57 1015.49 1015.50 1015.61 1015.82 1016.10 1016.41 1016.70 1016.92 1017.05 1017.06 1016.97 1016.81 1016.62 1016.44 1016.29 1016.20 1016.18
1016.29 1016.24 1016.15 1016.08 1016.10 1016.23 1016.47 1016.76 1017.05 1017.27 1017.37 1017.33 1017.16 1016.90 1016.61 1016.34 1016.14 1016.02 1015.98 1015.98 1016.00 1015.98 1015.91 1015.78 1015.62 1015.46 1015.35 1015.32 1015.39 1015.56 1015.81 1016.09 1016.38 1016.61 1016.77 1016.83 1016.82 1016.75 1016.66 1016.57 1016.52 1016.51 1016.54
Thickness
5763 5766 5768 5768 5768 5768 5768 5768 5768 5768 5767 5767 5767 5767 5767 5766 5766 5765 5765 5764 5763 5762 5762 5761 5761 5760 5759 5758 5757 5756 5755 5754 5753 5752 5751 5750 5749 5748 5747 5746 5744 5742 5741
5767 5767 5768 5767 5767 5767 5766 5766 5766 5766 5765 5765 5765 5765 5765 5765 5765 5764 5763 5763 5762 5761 5760 5760 5759 5758 5758 5756 5756 5755 5754 5753 5751 5751 5750 5749 5748 5746 5746 5744 5743 5741 5740
5769 5768 5768 5767 5767 5766 5766 5765 5765 5765 5764 5764 5764 5764 5764 5764 5763 5763 5762 5761 5761 5760 5759 5758 5757 5757 5756 5755 5754 5753 5752 5751 5750 5749 5748 5747 5746 5745 5744 5743 5742 5740 5739
5769 5768 5768 5767 5767 5766 5765 5764 5764 5764 5764 5763 5763 5763 5763 5762 5762 5761 5760 5759 5759 5758 5757 5757 5756 5755 5755 5754 5753 5751 5751 5750 5748 5747 5746 5745 5744 5743 5743 5742 5740 5739 5738
5770 5768 5768 5767 5767 5766 5764 5764 5763 5763 5762 5762 5762 5761 5761 5761 5760 5760 5759 5758 5757 5756 5756 5755 5755 5754 5753 5752 5751 5751 5750 5749 5748 5746 5745 5745 5743 5742 5742 5741 5739 5738 5737
5769 5769 5768 5767 5766 5765 5764 5763 5763 5762 5762 5761 5761 5760 5760 5759 5759 5758 5757 5757 5756 5755 5755 5754 5754 5753 5752 5752 5751 5750 5749 5748 5747 5746 5745 5744 5743 5742 5741 5740 5739 5737 5736
5770 5769 5768 5767 5766 5765 5764 5763 5762 5762 5761 5760 5760 5759 5759 5758 5758 5757 5757 5756 5755 5755 5754 5754 5753 5753 5752 5751 5751 5750 5749 5748 5747 5746 5745 5744 5743 5742 5741 5740 5739 5737 5735
5771 5770 5768 5767 5766 5765 5764 5763 5762 5761 5760 5760 5759 5758 5758 5757 5757 5756 5756 5755 5755 5755 5754 5753 5753 5752 5752 5751 5751 5750 5749 5748 5747 5746 5744 5743 5743 5742 5740 5739 5738 5737 5735
5772 5770 5768 5767 5766 5764 5763 5762 5762 5761 5760 5759 5758 5758 5758 5757 5756 5755 5755 5755 5755 5755 5754 5753 5753 5752 5752 5751 5751 5750 5749 5748 5747 5746 5744 5743 5743 5742 5740 5739 5737 5736 5735
5772 5770 5768 5767 5765 5764 5763 5762 5762 5761 5760 5759 5758 5758 5757 5756 5755 5755 5755 5755 5755 5754 5754 5753 5753 5752 5752 5751 5751 5750 5749 5748 5747 5746 5745 5744 5743 5742 5741 5739 5738 5736 5734
5770 5769 5768 5766 5765 5764 5763 5762 5761 5760 5760 5759 5758 5757 5756 5755 5755 5755 5755 5755 5754 5754 5754 5753 5753 5753 5752 5752 5751 5750 5749 5748 5747 5746 5746 5745 5744 5743 5741 5740 5738 5737 5735
5769 5769 5769 5767 5766 5764 5764 5762 5761 5761 5759 5758 5757 5756 5755 5755 5755 5755 5755 5755 5754 5754 5754 5754 5754 5753 5753 5752 5752 5751 5750 5749 5748 5747 5747 5746 5745 5743 5742 5740 5739 5737 5735
5774 5773 5771 5769 5768 5766 5765 5763 5762 5761 5760 5759 5757 5756 5756 5755 5755 5755 5755 5755 5755 5754 5754 5754 5754 5754 5754 5753 5753 5752 5751 5750 5749 5749 5748 5747 5746 5745 5743 5741 5739 5738 5736
5777 5776 5774 5772 5770 5768 5767 5765 5763 5762 5761 5760 5758 5757 5757 5756 5755 5755 5755 5756 5755 5754 5754 5754 5754 5755 5754 5754 5754 5753 5753 5752 5751 5750 5749 5749 5747 5745 5744 5742 5740 5739 5737
5780 5779 5778 5776 5773 5771 5768 5766 5765 5763 5763 5762 5760 5759 5758 5758 5757 5756 5756 5756 5756 5755 5755 5754 5754 5754 5754 5754 5755 5754 5754 5754 5752 5751 5751 5750 5748 5746 5745 5743 5741 5740 5738
5783 5781 5780 5778 5776 5773 5770 5768 5766 5765 5764 5763 5762 5761 5760 5759 5758 5758 5757 5757 5757 5756 5756 5755 5755 5755 5754 5755 5755 5755 5755 5754 5753 5752 5751 5750 5749 5747 5746 5744 5743 5741 5739
5786 5784 5782 5780 5778 5775 5772 5770 5768 5766 5765 5764 5763 5763 5761 5760 5759 5758 5758 5758 5758 5758 5757 5757 5756 5756 5755 5755 5755 5756 5756 5755 5754 5753 5752 5751 5750 5748 5747 5746 5745 5743 5741
5790 5786 5784 5783 5778 5776 5773 5771 5769 5767 5765 5765 5764 5763 5762 5761 5760 5759 5758 5758 5759 5758 5758 5757 5756 5754 5754 5754 5754 5755 5755 5755 5754 5753 5752 5752 5751 5750 5748 5747 5746 5745 5743
5793 5789 5785 5783 5780 5777 5775 5772 5770 5768 5766 5765 5764 5763 5763 5762 5761 5760 5759 5759 5759 5758 5758 5757 5756 5754 5752 5752 5753 5754 5754 5754 5754 5754 5753 5752 5751 5750 5749 5748 5747 5746 5744
5796 5792 5788 5785 5781 5779 5776 5773 5769 5767 5766 5766 5765 5764 5762 5761 5761 5761 5760 5760 5759 5758 5757 5756 5755 5754 5753 5753 5753 5753 5753 5753 5753 5753 5753 5752 5750 5749 5748 5747 5746 5745 5744
5797 5793 5790 5785 5782 5780 5776 5772 5768 5765 5765 5765 5765 5764 5762 5762 5762 5761 5761 5760 5759 5757 5756 5756 5755 5753 5752 5753 5749 5746 5748 5751 5751 5751 5751 5750 5749 5748 5747 5745 5744 5744 5743
5798 5795 5791 5788 5785 5782 5779 5776 5772 5769 5767 5766 5765 5764 5763 5762 5762 5761 5760 5759 5759 5757 5756 5755 5754 5752 5751 5752 5747 5741 5737 5740 5745 5749 5749 5748 5747 5746 5745 5744 5742 5741 5740
5799 5797 5796 5791 5788 5785 5782 5778 5774 5770 5767 5764 5763 5763 5763 5763 5762 5761 5760 5759 5758 5757 5755 5756 5755 5752 5749 5750 5750 5743 5736 5732 5736 5741 5744 5745 5744 5743 5742 5741 5739 5738 5737
5804 5802 5798 5794 5790 5787 5784 5779 5773 5768 5763 5763 5763 5763 5763 5763 5762 5762 5761 5760 5759 5758 5756 5756 5756 5754 5751 5747 5748 5748 5746 5742 5734 5732 5736 5739 5740 5739 5738 5738 5737 5735 5735
5809 5805 5800 5796 5792 5789 5785 5781 5775 5771 5768 5766 5765 5763 5762 5763 5762 5762 5761 5760 5759 5758 5757 5757 5756 5755 5752 5749 5746 5745 5744 5742 5739 5732 5727 5730 5732 5734 5734 5734 5733 5732 5730
5811 5806 5801 5796 5792 5790 5786 5782 5778 5773 5769 5766 5763 5761 5761 5760 5761 5762 5761 5760 5759 5758 5757 5756 5755 5753 5751 5749 5747 5745 5742 5739 5736 5733 5727 5725 5725 5726 5729 5729 5727 5726 5725